IBE04KL LEMD-LEBL

Flight info

Callsign IBE04KL
Flight time 0h 52m
Altitude 30000
Route PINAR N870 PONEN T600 CASPE
Aircraft A320/M-SDE3FGHIRWY/LB1

Departure

Time 2026-05-04 15:30
Airport Adolfo Suárez Madrid–Barajas Airport (LEMD)

Arrival

Time 2026-05-04 16:22
Airport Josep Tarradellas Barcelona-El Prat Airport (LEBL)
Time Latitude Longitude Altitude Speed Heading
2026-05-04 15:19 40.49347 -3.58964 2022 ft 0 kts 271°
2026-05-04 15:19 40.49347 -3.58952 2031 ft 2 kts 266°
2026-05-04 15:19 40.49349 -3.58909 2025 ft 2 kts 255°
2026-05-04 15:20 40.49355 -3.58888 2029 ft 2 kts 211°
2026-05-04 15:20 40.49369 -3.58883 2031 ft 1 kts 178°
2026-05-04 15:20 40.49372 -3.58883 2027 ft 0 kts 177°
2026-05-04 15:22 40.49369 -3.58883 2031 ft 2 kts 177°
2026-05-04 15:22 40.49303 -3.58881 2022 ft 14 kts 179°
2026-05-04 15:22 40.49088 -3.58880 2022 ft 17 kts 179°
2026-05-04 15:23 40.48969 -3.58879 2028 ft 18 kts 180°
2026-05-04 15:23 40.48844 -3.58878 2025 ft 18 kts 179°
2026-05-04 15:23 40.48760 -3.58807 2022 ft 16 kts 92°
2026-05-04 15:23 40.48759 -3.58670 2022 ft 17 kts 89°
2026-05-04 15:24 40.48761 -3.58208 2008 ft 29 kts 90°
2026-05-04 15:24 40.48763 -3.57642 1991 ft 33 kts 90°
2026-05-04 15:25 40.48764 -3.57331 1986 ft 35 kts 89°
2026-05-04 15:25 40.48764 -3.56997 1982 ft 38 kts 90°
2026-05-04 15:25 40.48767 -3.56639 1974 ft 40 kts 90°
2026-05-04 15:26 40.48833 -3.56138 1959 ft 7 kts 359°
2026-05-04 15:26 40.48834 -3.56138 1959 ft 0 kts 359°
2026-05-04 15:26 40.48876 -3.56139 1959 ft 16 kts 359°
2026-05-04 15:27 40.49004 -3.56141 1959 ft 18 kts 359°
2026-05-04 15:27 40.49251 -3.56141 1959 ft 20 kts 360°
2026-05-04 15:28 40.49491 -3.56143 1959 ft 15 kts 359°
2026-05-04 15:28 40.49553 -3.56033 1960 ft 20 kts 90°
2026-05-04 15:28 40.49408 -3.55710 1962 ft 51 kts 143°
2026-05-04 15:29 40.48934 -3.55231 1952 ft 117 kts 142°
2026-05-04 15:30 40.45222 -3.51449 3766 ft 176 kts 147°
2026-05-04 15:30 40.42635 -3.47981 5271 ft 191 kts 119°
2026-05-04 15:31 40.41338 -3.44458 5716 ft 239 kts 118°
2026-05-04 15:31 40.40586 -3.42422 6210 ft 253 kts 118°
2026-05-04 15:32 40.39538 -3.35707 8423 ft 267 kts 69°
2026-05-04 15:32 40.42129 -3.32206 9598 ft 285 kts 16°
2026-05-04 15:33 40.46067 -3.31379 11036 ft 290 kts
2026-05-04 15:34 40.52149 -3.30358 13261 ft 298 kts
2026-05-04 15:34 40.54220 -3.30008 13957 ft 302 kts
2026-05-04 15:34 40.58422 -3.29296 15235 ft 307 kts
2026-05-04 15:35 40.62704 -3.28562 16494 ft 316 kts
2026-05-04 15:35 40.64953 -3.28182 16630 ft 336 kts
2026-05-04 15:35 40.67341 -3.27782 16773 ft 356 kts
2026-05-04 15:36 40.72497 -3.26906 17043 ft 391 kts
2026-05-04 15:36 40.75251 -3.26431 17184 ft 407 kts
2026-05-04 15:36 40.78108 -3.25927 17323 ft 422 kts
2026-05-04 15:37 40.80976 -3.24825 17612 ft 437 kts 21°
2026-05-04 15:37 40.83583 -3.22689 18043 ft 448 kts 37°
2026-05-04 15:37 40.85702 -3.19640 18456 ft 456 kts 54°
2026-05-04 15:37 40.87115 -3.15877 18856 ft 461 kts 71°
2026-05-04 15:38 40.87968 -3.11776 19256 ft 464 kts 75°
2026-05-04 15:38 40.88780 -3.07644 19665 ft 466 kts 75°
2026-05-04 15:38 40.89586 -3.03487 20060 ft 468 kts 75°
2026-05-04 15:38 40.90393 -2.99311 20435 ft 470 kts 75°
2026-05-04 15:39 40.91206 -2.95116 20794 ft 472 kts 75°
2026-05-04 15:39 40.92026 -2.90901 21147 ft 474 kts 75°
2026-05-04 15:39 40.93682 -2.82416 21818 ft 478 kts 75°
2026-05-04 15:40 40.94515 -2.78150 22152 ft 480 kts 75°
2026-05-04 15:40 40.95354 -2.73859 22460 ft 483 kts 75°
2026-05-04 15:40 40.96190 -2.69551 22773 ft 485 kts 75°
2026-05-04 15:40 40.97021 -2.65218 23077 ft 487 kts 75°
2026-05-04 15:41 40.97854 -2.60865 23376 ft 489 kts 75°
2026-05-04 15:41 40.98690 -2.56491 23621 ft 491 kts 75°
2026-05-04 15:41 40.99529 -2.52103 23842 ft 493 kts 75°
2026-05-04 15:41 41.00371 -2.47696 24058 ft 495 kts 75°
2026-05-04 15:42 41.01215 -2.43265 24258 ft 497 kts 75°
2026-05-04 15:42 41.02060 -2.38818 24460 ft 499 kts 76°
2026-05-04 15:42 41.02906 -2.34357 24649 ft 501 kts 76°
2026-05-04 15:42 41.03754 -2.29880 24883 ft 501 kts 76°
2026-05-04 15:43 41.04315 -2.26915 25066 ft 501 kts 76°
2026-05-04 15:43 41.05162 -2.22432 25332 ft 501 kts 76°
2026-05-04 15:43 41.06007 -2.17954 25605 ft 501 kts 76°
2026-05-04 15:43 41.06849 -2.13469 25874 ft 501 kts 76°
2026-05-04 15:44 41.07691 -2.08987 26162 ft 501 kts 76°
2026-05-04 15:44 41.08533 -2.04503 26446 ft 502 kts 77°
2026-05-04 15:44 41.09372 -2.00011 26725 ft 502 kts 77°
2026-05-04 15:44 41.10205 -1.95520 27017 ft 502 kts 77°
2026-05-04 15:45 41.11037 -1.91022 27307 ft 502 kts 77°
2026-05-04 15:45 41.11868 -1.86522 27593 ft 503 kts 77°
2026-05-04 15:45 41.12699 -1.82017 27881 ft 503 kts 77°
2026-05-04 15:45 41.13529 -1.77511 28178 ft 503 kts 77°
2026-05-04 15:46 41.14359 -1.72999 28477 ft 504 kts 78°
2026-05-04 15:46 41.15187 -1.68484 28765 ft 504 kts 78°
2026-05-04 15:46 41.16015 -1.63957 29074 ft 505 kts 78°
2026-05-04 15:46 41.16843 -1.59433 29388 ft 505 kts 78°
2026-05-04 15:47 41.17670 -1.54908 29702 ft 505 kts 78°
2026-05-04 15:47 41.18491 -1.50379 29932 ft 506 kts 78°
2026-05-04 15:47 41.19315 -1.45816 29964 ft 511 kts 78°
2026-05-04 15:48 41.20972 -1.36606 29959 ft 514 kts 78°
2026-05-04 15:48 41.23464 -1.22755 29958 ft 514 kts 79°
2026-05-04 15:49 41.25117 -1.13511 29962 ft 514 kts 79°
2026-05-04 15:49 41.26741 -1.04329 29948 ft 514 kts 79°
2026-05-04 15:50 41.28371 -0.95083 29947 ft 514 kts 79°
2026-05-04 15:50 41.29990 -0.85824 29937 ft 514 kts 79°
2026-05-04 15:51 41.31603 -0.76576 29936 ft 513 kts 80°
2026-05-04 15:51 41.33215 -0.67329 29932 ft 513 kts 80°
2026-05-04 15:52 41.34719 -0.58071 29932 ft 509 kts 86°
2026-05-04 15:52 41.34734 -0.48774 29927 ft 498 kts 103°
2026-05-04 15:53 41.33703 -0.39680 29925 ft 497 kts 103°
2026-05-04 15:53 41.32680 -0.30595 29913 ft 496 kts 103°
2026-05-04 15:54 41.31656 -0.21507 29924 ft 497 kts 104°
2026-05-04 15:54 41.30620 -0.12430 29915 ft 496 kts 104°
2026-05-04 15:55 41.29575 -0.03364 29908 ft 496 kts 104°
2026-05-04 15:55 41.28536 0.05606 29679 ft 480 kts 104°
2026-05-04 15:56 41.28041 0.09898 29116 ft 472 kts 104°
2026-05-04 15:56 41.27545 0.14180 28570 ft 465 kts 103°
2026-05-04 15:56 41.27315 0.18455 28140 ft 463 kts 94°
2026-05-04 15:56 41.27602 0.22756 27734 ft 460 kts 83°
2026-05-04 15:57 41.28361 0.26809 27346 ft 456 kts 77°
2026-05-04 15:57 41.29265 0.30880 26924 ft 450 kts 77°
2026-05-04 15:57 41.30137 0.34837 26532 ft 443 kts 77°
2026-05-04 15:57 41.30980 0.38690 26152 ft 437 kts 77°
2026-05-04 15:58 41.31819 0.42546 25779 ft 432 kts 77°
2026-05-04 15:58 41.32646 0.46364 25404 ft 426 kts 77°
2026-05-04 15:58 41.33462 0.50129 25035 ft 422 kts 77°
2026-05-04 15:58 41.34270 0.53856 24674 ft 416 kts 77°
2026-05-04 15:59 41.35067 0.57537 24315 ft 412 kts 77°
2026-05-04 15:59 41.35853 0.61176 23965 ft 407 kts 77°
2026-05-04 15:59 41.36630 0.64774 23617 ft 402 kts 77°
2026-05-04 15:59 41.37397 0.68328 23232 ft 398 kts 77°
2026-05-04 16:00 41.38157 0.71860 22823 ft 394 kts 77°
2026-05-04 16:00 41.38907 0.75347 22416 ft 390 kts 77°
2026-05-04 16:00 41.39649 0.78805 22013 ft 387 kts 77°
2026-05-04 16:00 41.40384 0.82244 21618 ft 384 kts 77°
2026-05-04 16:01 41.41114 0.85660 21229 ft 382 kts 77°
2026-05-04 16:01 41.41836 0.89050 20848 ft 379 kts 77°
2026-05-04 16:01 41.42563 0.92461 20459 ft 376 kts 77°
2026-05-04 16:01 41.43267 0.95757 20094 ft 374 kts 77°
2026-05-04 16:02 41.43973 0.99071 19730 ft 371 kts 77°
2026-05-04 16:02 41.44672 1.02367 19355 ft 368 kts 77°
2026-05-04 16:02 41.46050 1.08893 18653 ft 364 kts 77°
2026-05-04 16:03 41.46734 1.12133 18298 ft 362 kts 77°
2026-05-04 16:03 41.47414 1.15352 17903 ft 360 kts 77°
2026-05-04 16:03 41.48090 1.18558 17501 ft 358 kts 77°
2026-05-04 16:03 41.48762 1.21751 17103 ft 357 kts 77°
2026-05-04 16:04 41.49427 1.24927 16711 ft 355 kts 77°
2026-05-04 16:04 41.50753 1.31249 15946 ft 352 kts 77°
2026-05-04 16:04 41.51411 1.34388 15571 ft 351 kts 77°
2026-05-04 16:05 41.52066 1.37518 15196 ft 349 kts 77°
2026-05-04 16:05 41.52713 1.40623 14926 ft 344 kts 77°
2026-05-04 16:05 41.53947 1.46572 14879 ft 324 kts 77°
2026-05-04 16:06 41.54494 1.49497 14433 ft 326 kts 83°
2026-05-04 16:06 41.54731 1.57608 13112 ft 333 kts 93°
2026-05-04 16:07 41.54737 1.61761 12420 ft 336 kts 93°
2026-05-04 16:07 41.54758 1.71169 10919 ft 339 kts 92°
2026-05-04 16:08 41.54786 1.74309 10492 ft 338 kts 92°
2026-05-04 16:08 41.54889 1.83520 9494 ft 323 kts 92°
2026-05-04 16:09 41.54894 1.89308 9198 ft 301 kts 99°
2026-05-04 16:09 41.54172 1.94788 8944 ft 296 kts 104°
2026-05-04 16:10 41.53434 2.00176 8726 ft 293 kts 108°
2026-05-04 16:11 41.51398 2.07510 8414 ft 269 kts 115°
2026-05-04 16:11 41.50739 2.09819 8314 ft 265 kts 114°
2026-05-04 16:12 41.48763 2.16703 7633 ft 265 kts 114°
2026-05-04 16:12 41.46793 2.23532 6902 ft 261 kts 114°
2026-05-04 16:13 41.45656 2.28087 6250 ft 258 kts 102°
2026-05-04 16:13 41.45778 2.32767 5756 ft 250 kts 78°
2026-05-04 16:14 41.46902 2.37047 5272 ft 242 kts 85°
2026-05-04 16:14 41.45985 2.41050 4816 ft 220 kts 136°
2026-05-04 16:15 41.42145 2.42242 4489 ft 195 kts 207°
2026-05-04 16:16 41.40469 2.39512 4424 ft 192 kts 244°
2026-05-04 16:16 41.38879 2.34784 3946 ft 184 kts 244°
2026-05-04 16:17 41.37860 2.31779 3474 ft 173 kts 243°
2026-05-04 16:18 41.36423 2.27546 2809 ft 162 kts 243°
2026-05-04 16:18 41.35960 2.26182 2596 ft 161 kts 243°
2026-05-04 16:19 41.34577 2.22117 1961 ft 162 kts 243°
2026-05-04 16:19 41.33646 2.19383 1530 ft 162 kts 243°
2026-05-04 16:20 41.32320 2.15491 883 ft 147 kts 244°
2026-05-04 16:20 41.31493 2.13104 480 ft 139 kts 244°
2026-05-04 16:21 41.30355 2.09749 30 ft 121 kts 248°
2026-05-04 16:22 41.29783 2.08069 19 ft 45 kts 244°
2026-05-04 16:22 41.29520 2.07759 16 ft 0 kts 218°
2026-05-04 16:24 41.29401 2.07703 15 ft 13 kts 156°
2026-05-04 16:25 41.29278 2.07778 19 ft 11 kts 155°
2026-05-04 16:26 41.29152 2.07944 19 ft 0 kts 157°